TimeCST,TemperatureF,Dew PointF,Humidity,Sea Level PressureIn,VisibilityMPH,Wind Direction,Wind SpeedMPH,Gust SpeedMPH,PrecipitationIn,Events,Conditions,WindDirDegrees,DateUTC
12:15 AM,37.4,33.8,87,30.00,5.0,South,8.1,-,0.01,Rain,Heavy Rain,170,2013-02-07 06:15:00
12:35 AM,37.0,34.2,89,29.99,5.0,SSE,6.9,-,0.02,Rain,Rain,160,2013-02-07 06:35:00
12:55 AM,37.0,34.7,91,29.98,5.0,South,10.4,-,0.02,Rain,Light Rain,170,2013-02-07 06:55:00
1:15 AM,37.6,34.7,89,29.97,7.0,South,11.5,-,0.01,Rain,Rain,170,2013-02-07 07:15:00
1:35 AM,37.4,35.1,91,29.96,3.0,SSE,11.5,-,0.01,Rain,Rain,160,2013-02-07 07:35:00
1:55 AM,37.4,35.1,91,29.96,5.0,SSE,10.4,-,0.01,Rain,Light Rain,160,2013-02-07 07:55:00
2:15 AM,37.4,35.2,92,29.97,5.0,SSE,9.2,-,N/A,Rain,Light Rain,160,2013-02-07 08:15:00
2:35 AM,37.4,35.2,92,29.97,5.0,SSE,9.2,-,N/A,Rain,Light Rain,160,2013-02-07 08:35:00
2:55 AM,37.4,35.4,93,29.96,7.0,SSE,6.9,-,0.01,Rain,Light Rain,160,2013-02-07 08:55:00
3:15 AM,37.4,34.9,91,29.96,10.0,SSE,8.1,-,N/A,,Overcast,160,2013-02-07 09:15:00
3:35 AM,37.4,34.7,90,29.95,10.0,SSE,8.1,-,N/A,,Overcast,150,2013-02-07 09:35:00
3:55 AM,37.2,34.3,89,29.94,10.0,SSE,8.1,-,N/A,,Overcast,150,2013-02-07 09:55:00
4:15 AM,37.4,34.2,88,29.94,10.0,SSE,9.2,-,N/A,,Overcast,160,2013-02-07 10:15:00
4:35 AM,37.6,34.2,87,29.94,10.0,SSE,10.4,-,N/A,,Overcast,150,2013-02-07 10:35:00
4:55 AM,37.8,34.3,87,29.94,10.0,SSE,12.7,-,N/A,,Light Drizzle,150,2013-02-07 10:55:00
5:15 AM,37.4,34.0,87,29.93,10.0,SSE,10.4,-,N/A,,Overcast,160,2013-02-07 11:15:00
5:35 AM,37.6,34.0,87,29.93,10.0,SSE,8.1,-,N/A,,Overcast,150,2013-02-07 11:35:00
5:55 AM,37.4,33.8,87,29.93,10.0,SSE,8.1,-,N/A,,Overcast,150,2013-02-07 11:55:00
6:15 AM,37.0,34.0,89,29.93,7.0,SSE,9.2,-,N/A,,Light Drizzle,150,2013-02-07 12:15:00
6:35 AM,36.7,34.3,91,29.93,7.0,SSE,8.1,-,N/A,Rain,Light Rain,160,2013-02-07 12:35:00
6:55 AM,36.9,34.9,93,29.93,5.0,SSE,8.1,-,N/A,Rain,Light Rain,160,2013-02-07 12:55:00
7:15 AM,36.9,35.6,95,29.93,3.0,SSE,6.9,-,N/A,Rain,Light Rain,160,2013-02-07 13:15:00
7:35 AM,36.7,35.6,96,29.93,3.0,SSE,4.6,-,N/A,Rain,Rain,160,2013-02-07 13:35:00
7:55 AM,36.5,35.6,97,29.93,3.0,NNE,6.9,-,N/A,Rain,Light Rain,30,2013-02-07 13:55:00
8:15 AM,36.7,35.8,97,29.93,2.5,ESE,6.9,-,N/A,,Light Drizzle,120,2013-02-07 14:15:00
8:35 AM,37.0,36.0,96,29.93,2.5,ENE,6.9,-,N/A,,Light Drizzle,60,2013-02-07 14:35:00
8:55 AM,37.0,36.0,96,29.93,3.0,SSE,8.1,-,N/A,Rain,Rain,150,2013-02-07 14:55:00
9:15 AM,37.2,36.0,95,29.93,2.0,SSE,8.1,-,N/A,Rain,Rain,160,2013-02-07 15:15:00
9:35 AM,37.0,36.0,96,29.92,2.0,SSE,8.1,-,N/A,Rain,Light Rain,150,2013-02-07 15:35:00
9:55 AM,37.0,36.1,97,29.93,2.0,SSE,6.9,-,N/A,,Drizzle,160,2013-02-07 15:55:00
10:15 AM,37.0,36.0,96,29.93,2.0,South,4.6,-,N/A,,Drizzle,170,2013-02-07 16:15:00
10:35 AM,36.9,35.8,96,29.93,1.5,South,5.8,-,N/A,Rain,Rain,170,2013-02-07 16:35:00
10:55 AM,37.0,36.1,97,29.93,1.0,ESE,3.5,-,N/A,Rain,Light Rain,120,2013-02-07 16:55:00
11:15 AM,37.4,36.5,97,29.93,1.0,SSE,3.5,-,N/A,Rain,Rain,160,2013-02-07 17:15:00
11:35 AM,37.2,36.5,97,29.92,1.0,SSE,4.6,-,N/A,Rain,Light Rain,160,2013-02-07 17:35:00
11:55 AM,37.4,36.5,97,29.91,1.2,South,3.5,-,N/A,Rain,Light Rain,170,2013-02-07 17:55:00
12:15 PM,37.4,36.5,97,29.91,1.2,SSE,3.5,-,N/A,Rain,Light Rain,160,2013-02-07 18:15:00
12:35 PM,37.4,36.5,97,29.91,1.2,SW,4.6,-,N/A,Rain,Light Rain,220,2013-02-07 18:35:00
12:55 PM,37.2,36.5,97,29.90,1.2,WSW,3.5,-,0.01,Rain,Rain,240,2013-02-07 18:55:00
1:15 PM,37.6,36.9,97,29.90,1.5,NW,6.9,-,N/A,Rain,Light Rain,310,2013-02-07 19:15:00
1:35 PM,37.8,37.0,97,29.89,2.5,West,3.5,-,N/A,Rain,Rain,270,2013-02-07 19:35:00
1:55 PM,37.9,37.0,97,29.88,2.5,NW,4.6,-,N/A,,Light Drizzle,310,2013-02-07 19:55:00
2:15 PM,38.3,37.0,95,29.88,3.0,NW,6.9,-,N/A,Rain,Rain,310,2013-02-07 20:15:00
2:35 PM,38.8,37.8,96,29.87,3.0,NW,5.8,-,N/A,,Drizzle,310,2013-02-07 20:35:00
2:55 PM,39.2,38.1,96,29.88,4.0,NW,6.9,-,N/A,,Light Drizzle,310,2013-02-07 20:55:00
3:15 PM,38.8,37.6,95,29.90,5.0,WNW,13.8,-,N/A,,Overcast,300,2013-02-07 21:15:00
3:35 PM,38.7,37.4,95,29.90,5.0,NW,15.0,21.9,N/A,,Drizzle,320,2013-02-07 21:35:00
3:55 PM,38.3,36.7,94,29.90,10.0,NW,16.1,-,N/A,,Light Drizzle,320,2013-02-07 21:55:00
4:15 PM,37.6,36.1,95,29.91,10.0,NW,11.5,-,N/A,Rain,Light Rain,320,2013-02-07 22:15:00
4:35 PM,37.4,36.1,95,29.93,10.0,NW,10.4,-,N/A,,Light Drizzle,310,2013-02-07 22:35:00
4:55 PM,37.2,35.6,94,29.94,10.0,WNW,11.5,19.6,N/A,,Overcast,300,2013-02-07 22:55:00
5:15 PM,36.3,34.7,94,29.95,7.0,WNW,16.1,23.0,N/A,,Overcast,300,2013-02-07 23:15:00
5:35 PM,35.6,34.0,94,29.96,5.0,NW,12.7,19.6,N/A,,Overcast,310,2013-02-07 23:35:00
5:55 PM,35.1,33.8,95,29.98,3.0,NW,11.5,21.9,N/A,,Overcast,310,2013-02-07 23:55:00
6:15 PM,34.9,33.4,94,29.99,3.0,NW,11.5,20.7,N/A,,Overcast,310,2013-02-08 00:15:00
6:35 PM,34.9,33.3,94,30.00,3.0,NW,11.5,17.3,N/A,,Overcast,320,2013-02-08 00:35:00
6:55 PM,34.7,32.9,93,30.02,2.5,NW,17.3,25.3,N/A,,Overcast,320,2013-02-08 00:55:00
7:15 PM,33.8,32.4,94,30.02,2.0,NW,11.5,18.4,N/A,,Overcast,320,2013-02-08 01:15:00
7:35 PM,33.3,32.0,95,30.03,2.0,NW,18.4,24.2,N/A,,Overcast,320,2013-02-08 01:35:00
7:55 PM,32.9,31.8,96,30.04,2.0,NW,16.1,21.9,N/A,,Overcast,320,2013-02-08 01:55:00
8:15 PM,32.2,31.1,96,30.05,2.0,NNW,18.4,23.0,N/A,,Overcast,330,2013-02-08 02:15:00
8:35 PM,32.0,30.9,96,30.06,1.8,NW,13.8,-,N/A,,Overcast,310,2013-02-08 02:35:00
8:55 PM,32.0,30.9,96,30.07,1.8,NW,10.4,20.7,N/A,,Overcast,320,2013-02-08 02:55:00
9:15 PM,32.0,30.7,95,30.07,1.5,NW,13.8,17.3,N/A,,Overcast,320,2013-02-08 03:15:00
9:35 PM,31.8,30.6,95,30.08,1.8,NW,11.5,20.7,N/A,,Overcast,320,2013-02-08 03:35:00
9:55 PM,31.8,30.2,94,30.08,2.0,NW,18.4,23.0,N/A,,Overcast,320,2013-02-08 03:55:00
10:15 PM,31.8,30.2,94,30.09,2.5,NNW,17.3,23.0,N/A,,Overcast,330,2013-02-08 04:15:00
10:35 PM,32.0,29.7,91,30.09,3.0,NNW,16.1,23.0,N/A,,Overcast,330,2013-02-08 04:35:00
10:55 PM,31.8,29.5,91,30.10,4.0,NW,11.5,-,N/A,,Overcast,320,2013-02-08 04:55:00
11:15 PM,31.6,29.3,91,30.10,4.0,NNW,13.8,23.0,N/A,,Overcast,330,2013-02-08 05:15:00
11:35 PM,31.8,29.7,92,30.11,4.0,NNW,13.8,17.3,N/A,,Overcast,330,2013-02-08 05:35:00
11:55 PM,31.5,29.1,91,30.11,5.0,NNW,16.1,20.7,N/A,,Overcast,330,2013-02-08 05:55:00